TimeCDT,TemperatureF,Dew PointF,Humidity,Sea Level PressureIn,VisibilityMPH,Wind Direction,Wind SpeedMPH,Gust SpeedMPH,PrecipitationIn,Events,Conditions,WindDirDegrees,DateUTC
12:54 AM,64.0,62.1,93,30.00,7.0,SW,3.5,-,N/A,,Clear,220,2013-08-20 05:54:00
1:54 AM,63.0,61.0,93,30.00,5.0,Calm,Calm,-,N/A,,Clear,0,2013-08-20 06:54:00
2:54 AM,62.1,61.0,96,29.99,5.0,Calm,Calm,-,N/A,,Clear,0,2013-08-20 07:54:00
3:54 AM,61.0,60.1,97,29.99,5.0,SSW,3.5,-,N/A,,Clear,210,2013-08-20 08:54:00
4:54 AM,61.0,60.1,97,29.99,4.0,South,4.6,-,N/A,,Mostly Cloudy,190,2013-08-20 09:54:00
5:54 AM,62.1,60.1,93,30.00,5.0,South,5.8,-,N/A,,Overcast,180,2013-08-20 10:54:00
6:54 AM,62.1,61.0,96,30.01,4.0,South,4.6,-,N/A,,Mostly Cloudy,180,2013-08-20 11:54:00
7:54 AM,64.9,62.1,90,30.02,6.0,South,5.8,-,N/A,,Partly Cloudy,180,2013-08-20 12:54:00
8:54 AM,71.1,62.1,73,30.02,9.0,South,8.1,-,N/A,,Clear,180,2013-08-20 13:54:00
9:54 AM,75.9,63.0,64,30.01,10.0,SSW,11.5,-,N/A,,Scattered Clouds,200,2013-08-20 14:54:00
10:54 AM,80.1,64.0,58,30.01,10.0,SSW,10.4,-,N/A,,Partly Cloudy,200,2013-08-20 15:54:00
11:54 AM,84.0,64.0,51,29.99,10.0,SSW,17.3,24.2,N/A,,Clear,200,2013-08-20 16:54:00
12:54 PM,84.9,64.9,51,29.99,10.0,South,17.3,23.0,N/A,,Scattered Clouds,190,2013-08-20 17:54:00
1:54 PM,87.1,66.0,49,29.97,10.0,SSW,13.8,21.9,N/A,,Scattered Clouds,200,2013-08-20 18:54:00
2:54 PM,86.0,66.0,51,29.96,10.0,SSW,15.0,23.0,N/A,,Mostly Cloudy,200,2013-08-20 19:54:00
3:54 PM,84.9,66.0,53,29.95,10.0,SSW,13.8,21.9,N/A,,Scattered Clouds,200,2013-08-20 20:54:00
4:54 PM,82.9,66.0,56,29.95,10.0,SSW,12.7,20.7,N/A,,Scattered Clouds,200,2013-08-20 21:54:00
5:54 PM,82.9,66.0,56,29.95,10.0,South,15.0,20.7,N/A,,Partly Cloudy,190,2013-08-20 22:54:00
6:54 PM,80.1,66.0,62,29.95,10.0,SSW,11.5,-,N/A,,Clear,200,2013-08-20 23:54:00
7:54 PM,78.1,66.0,66,29.95,10.0,SSW,8.1,-,0.00,Rain,Light Rain,200,2013-08-21 00:54:00
8:54 PM,77.0,66.0,69,29.96,10.0,South,8.1,-,0.00,,Overcast,190,2013-08-21 01:54:00
9:54 PM,77.0,66.0,69,29.97,10.0,SSW,8.1,-,N/A,,Overcast,200,2013-08-21 02:54:00
10:54 PM,73.0,66.0,79,29.97,10.0,South,5.8,-,N/A,,Overcast,180,2013-08-21 03:54:00
11:54 PM,73.9,66.0,76,29.96,10.0,South,6.9,-,N/A,,Mostly Cloudy,180,2013-08-21 04:54:00